This demonstration page uses our WeatherBlox Daily Observations layout. Learn more.

Left ArrowRight Arrow

Hourly Observations for February 23, 2019

Temp ( °F °C ) Dew Point ( °F °C ) Humidity (%) Winds ( mph kmh ) Pressure ( in mb ) Visibility ( mi km ) Precip ( " mm )
12:15 am 00:15 Cloudy 34 1 32 undefined 93 93 ENE 5 7 30.27 1025 7 11 N/A
12:16 am 00:16 Cloudy 34 1 32 undefined 93 93 ENE 6 9 30.27 1025 7 11 N/A
12:35 am 00:35 Cloudy 34 1 32 undefined 93 93 E 6 9 30.26 1025 7 11 N/A
12:55 am 00:55 Cloudy 34 1 32 undefined 93 93 E 7 11 30.25 1024 7 11 N/A
12:56 am 00:56 Cloudy 34 1 32 undefined 93 93 E 7 11 30.25 1024 7 11 N/A
1:15 am 01:15 Cloudy 34 1 32 undefined 93 93 E 7 11 30.25 1024 7 11 N/A
1:35 am 01:35 Cloudy 34 1 32 undefined 93 93 E 6 9 30.25 1024 7 11 N/A
1:55 am 01:55 Cloudy 34 1 34 1 100 100 E 8 13 30.23 1024 7 11 N/A
1:56 am 01:56 Cloudy 34 1 34 1 100 100 E 9 15 30.23 1024 7 11 N/A
2:15 am 02:15 Cloudy 36 2 34 1 93 93 E 7 11 30.23 1024 7 11 N/A
2:35 am 02:35 Cloudy 36 2 34 1 93 93 E 6 9 30.24 1024 7 11 N/A
2:55 am 02:55 Cloudy 36 2 34 1 93 93 E 8 13 30.22 1023 7 11 N/A
2:56 am 02:56 Cloudy 36 2 34 1 93 93 E 8 13 30.22 1023 7 11 N/A
3:15 am 03:15 Cloudy 36 2 34 1 93 93 E 8 13 30.20 1023 7 11 N/A
3:35 am 03:35 Cloudy 36 2 34 1 93 93 E 9 15 30.19 1022 7 11 N/A
3:36 am 03:36 Cloudy 36 2 34 1 93 93 E 9 15 30.19 1022 7 11 N/A
3:55 am 03:55 Cloudy 36 2 34 1 93 93 E 7 11 30.18 1022 7 11 N/A
4:15 am 04:15 Cloudy 36 2 34 1 93 93 E 9 15 30.17 1022 7 11 N/A
4:35 am 04:35 Cloudy 36 2 34 1 93 93 E 9 15 30.16 1021 7 11 N/A
4:36 am 04:36 Cloudy 36 2 34 1 93 93 E 9 15 30.15 1021 7 11 N/A
4:55 am 04:55 Cloudy 36 2 34 1 93 93 ENE 8 13 30.13 1020 7 11 N/A
4:56 am 04:56 Cloudy 36 2 34 1 93 93 E 7 11 30.13 1020 7 11 N/A
5:15 am 05:15 Cloudy 36 2 34 1 93 93 E 8 13 30.14 1021 7 11 N/A
5:35 am 05:35 Cloudy 36 2 34 1 93 93 ESE 7 11 30.15 1021 7 11 N/A
5:36 am 05:36 Cloudy 36 2 34 1 93 93 ESE 8 13 30.15 1021 7 11 N/A
5:55 am 05:55 Cloudy 36 2 34 1 93 93 ESE 9 15 30.14 1021 10 16 N/A
6:15 am 06:15 Cloudy 36 2 34 1 93 93 ESE 7 11 30.13 1020 10 16 N/A
6:35 am 06:35 Cloudy 36 2 34 1 93 93 ESE 9 15 30.12 1020 10 16 N/A
6:36 am 06:36 Cloudy 36 2 34 1 93 93 E 9 15 30.12 1020 10 16 N/A
6:55 am 06:55 Cloudy 36 2 34 1 93 93 ESE 8 13 30.12 1020 10 16 N/A
7:15 am 07:15 Cloudy 36 2 34 1 93 93 ESE 7 11 30.12 1020 10 16 N/A
7:16 am 07:16 Cloudy 36 2 34 1 93 93 ESE 7 11 30.12 1020 10 16 N/A
7:35 am 07:35 Cloudy 36 2 34 1 93 93 SE 7 11 30.11 1020 7 11 N/A
7:36 am 07:36 Cloudy 36 2 34 1 93 93 SE 7 11 30.11 1020 7 11 N/A
7:55 am 07:55 Cloudy 36 2 34 1 93 93 ESE 7 11 30.11 1020 7 11 N/A
8:15 am 08:15 Cloudy 36 2 34 1 93 93 ESE 5 7 30.11 1020 7 11 N/A
8:16 am 08:16 Cloudy 36 2 36 2 100 100 ESE 6 9 30.11 1020 7 11 N/A
8:35 am 08:35 Cloudy 37 3 36 2 93 93 ESE 7 11 30.09 1019 7 11 N/A
8:55 am 08:55 Cloudy 37 3 36 2 93 93 ESE 8 13 30.08 1019 7 11 N/A
9:15 am 09:15 Cloudy 37 3 36 2 93 93 ESE 7 11 30.07 1018 7 11 N/A
9:16 am 09:16 Cloudy 37 3 36 2 93 93 ESE 6 9 30.07 1018 7 11 N/A
9:35 am 09:35 Cloudy 37 3 36 2 93 93 ESE 7 11 30.06 1018 7 11 N/A
9:55 am 09:55 Cloudy 39 4 37 3 93 93 ESE 6 9 30.06 1018 7 11 N/A
9:56 am 09:56 Cloudy 39 4 37 3 93 93 SE 6 9 30.06 1018 7 11 N/A
10:15 am 10:15 Cloudy 39 4 37 3 93 93 ESE 7 11 30.05 1018 10 16 N/A
10:35 am 10:35 Cloudy 41 5 39 4 93 93 SE 9 15 30.04 1017 10 16 N/A
10:55 am 10:55 Cloudy 41 5 39 4 93 93 SE 9 15 30.04 1017 10 16 N/A
10:56 am 10:56 Cloudy 41 5 39 4 93 93 SE 9 15 30.04 1017 10 16 N/A
11:15 am 11:15 Cloudy 41 5 39 4 93 93 SE 10 17 30.03 1017 10 16 N/A
11:35 am 11:35 Cloudy 43 6 41 5 93 93 SE 12 19 30.00 1016 10 16 N/A
11:55 am 11:55 Cloudy 43 6 41 5 93 93 SE 9 15 30.00 1016 10 16 N/A
11:56 am 11:56 Cloudy 43 6 41 5 93 93 SE 10 17 30.00 1016 10 16 N/A
12:15 pm 12:15 Cloudy 43 6 41 5 93 93 SE 9 15 29.99 1016 10 16 N/A
12:35 pm 12:35 Cloudy 43 6 43 6 100 100 SE 9 15 29.98 1015 7 11 N/A
12:36 pm 12:36 Cloudy 43 6 43 6 100 100 SE 9 15 29.98 1015 7 11 N/A
12:55 pm 12:55 Cloudy 43 6 43 6 100 100 SE 8 13 29.96 1015 4 6 N/A
12:56 pm 12:56 Cloudy 43 6 43 6 100 100 SE 8 13 29.96 1015 4 6 N/A
1:15 pm 13:15 Cloudy 43 6 43 6 100 100 SE 9 15 29.94 1014 7 11 N/A
1:35 pm 13:35 Cloudy 45 7 45 7 100 100 SE 9 15 29.92 1013 7 11 N/A
1:36 pm 13:36 Cloudy 45 7 45 7 100 100 SSE 8 13 29.92 1013 7 11 N/A
1:55 pm 13:55 Cloudy 45 7 45 7 100 100 SSE 10 17 29.90 1013 7 11 N/A
2:15 pm 14:15 Cloudy 45 7 45 7 100 100 SSE 14 22 29.89 1012 3 4 N/A
2:35 pm 14:35 Cloudy 45 7 45 7 100 100 SSE 8 13 29.89 1012 3 4 N/A
2:36 pm 14:36 Cloudy 45 7 45 7 100 100 SSE 8 13 29.89 1012 3 5 N/A
2:55 pm 14:55 Cloudy 45 7 45 7 100 100 SSE 7 11 29.89 1012 3 4 N/A
3:15 pm 15:15 Cloudy 45 7 45 7 100 100 SSE 7 11 29.89 1012 3 5 N/A
3:35 pm 15:35 Cloudy 45 7 45 7 100 100 SSE 6 9 29.87 1012 2 3 N/A
3:36 pm 15:36 Cloudy 45 7 45 7 100 100 SSE 6 9 29.87 1012 2 3 N/A
3:55 pm 15:55 Cloudy 45 7 45 7 100 100 ESE 8 13 29.84 1011 3 5 N/A
3:56 pm 15:56 Cloudy 45 7 45 7 100 100 ESE 8 13 29.84 1011 3 5 N/A
4:16 pm 16:16 Cloudy 45 7 45 7 100 100 SE 8 13 29.83 1010 3 5 N/A
4:35 pm 16:35 Cloudy 46 8 46 8 100 100 SE 8 13 29.83 1010 4 6 N/A
4:36 pm 16:36 Cloudy 46 8 46 8 100 100 SE 10 17 29.83 1010 4 6 N/A
4:55 pm 16:55 Cloudy 46 8 46 8 100 100 SE 14 22 29.78 1008 4 6 N/A
5:15 pm 17:15 Cloudy 46 8 46 8 100 100 SE 12 19 29.78 1008 4 6 N/A
5:16 pm 17:16 Cloudy 46 8 46 8 100 100 SE 10 17 29.79 1009 5 8 N/A
5:35 pm 17:35 Cloudy 46 8 46 8 100 100 SSE 7 11 29.80 1009 5 8 N/A
5:36 pm 17:36 Cloudy 46 8 46 8 100 100 SSE 8 13 29.80 1009 7 11 N/A
5:55 pm 17:55 Cloudy 46 8 46 8 100 100 SSE 10 17 29.77 1008 7 11 N/A
6:15 pm 18:15 Cloudy 48 9 48 9 100 100 SE 8 13 29.72 1007 7 11 N/A
6:16 pm 18:16 Cloudy 48 9 48 9 100 100 SE 8 13 29.72 1007 7 11 N/A
6:35 pm 18:35 Cloudy 50 10 50 10 100 100 SSE 12 19 29.71 1006 10 16 N/A
6:36 pm 18:36 Cloudy 50 10 50 10 100 100 SSE 10 17 29.71 1006 10 16 N/A
6:55 pm 18:55 Cloudy 50 10 50 10 100 100 SSE 9 15 29.70 1006 10 16 N/A
7:15 pm 19:15 Cloudy 50 10 50 10 100 100 SSE 8 13 29.67 1005 10 16 N/A
7:16 pm 19:16 Cloudy 50 10 50 10 100 100 SSE 9 15 29.67 1005 10 16 N/A
7:35 pm 19:35 Cloudy 50 10 50 10 100 100 SSE 10 17 29.65 1004 10 16 N/A
7:55 pm 19:55 Cloudy 52 11 52 11 100 100 SSE 12 19 29.64 1004 10 16 N/A
8:15 pm 20:15 Cloudy 52 11 52 11 100 100 SSE 12 19 29.63 1003 10 16 N/A
8:16 pm 20:16 Cloudy 52 11 52 11 100 100 SSE 12 19 29.63 1003 10 16 N/A
8:35 pm 20:35 Mostly Cloudy 52 11 52 11 100 100 SSE 9 15 29.63 1003 10 16 N/A
8:55 pm 20:55 Mostly Cloudy 50 10 50 10 100 100 SSE 10 17 29.61 1003 10 16 N/A
9:15 pm 21:15 Partly Cloudy 52 11 52 11 100 100 SSE 15 24 29.59 1002 10 16 N/A
9:16 pm 21:16 Partly Cloudy 52 11 52 11 100 100 SSE 14 22 29.59 1002 10 16 N/A
9:35 pm 21:35 Mostly Cloudy 52 11 52 11 100 100 SSE 16 26 29.58 1002 10 16 N/A
9:55 pm 21:55 Cloudy 52 11 52 11 100 100 SSE 14 22 29.57 1001 10 16 N/A
10:15 pm 22:15 Cloudy 54 12 54 12 100 100 S 14 22 29.55 1001 10 16 N/A
10:16 pm 22:16 Cloudy 54 12 54 12 100 100 S 14 22 29.56 1001 10 16 N/A
10:35 pm 22:35 Cloudy 54 12 54 12 100 100 S 16 26 29.55 1001 10 16 N/A
10:55 pm 22:55 Cloudy 54 12 54 12 100 100 S 18 30 29.55 1001 7 11 N/A

Powered by AerisWeather